sat.trackr.live / text

‹ back to catalog

NUSTAR

NORAD 38358 · 2012-031A

PAYLOAD ACTIVE UNKNOWN

§ Identity

Operator
Country
US
Launch date
2012-06-13
Launch site
AFETR
Launch vehicle
Mass (kg)
RCS (m²)
1.26

Purposes: science

External: N2YO · Heavens-Above · Gunter

§ Orbital elements

Epoch: 2026-09-20T06:00:02.000160Z

Period
95.39 min
Inclination
6.0277°
Eccentricity
0.0006516
Mean motion
15.09578066 rev/d
Perigee alt
533.0 km
Apogee alt
542.0 km
Semi-major
6,915.6 km
B*
-2.3390e-5
RAAN
40.6240°
Arg perigee
81.2828°
Mean anomaly
228.1938°
Rev number
130

§ Raw data

NUSTAR1 38358U 12031A   26263.25002315  .00000470  00000+0 -23390-4 0  99932 38358   6.0277  40.6240 0006516  81.2828 228.1938 15.09578066  1308

JSON: /api/v1/satellites/38358 · /tle

For live sub-satellite position, see the globe view (requires WebGL).

§ Visibility from observer

Set your observer location to see the next 7 days of passes ≥ 10°. The values pass through the URL so the page stays shareable.

No JS? Fill the form by hand. The geolocation button needs JavaScript.